SWA3232 SABE-SBRJ

Flight info

Callsign SWA3232
Flight time N/A
Altitude 35000
Route DORVO8 DORVO UN857 TOGEK/N0453F370 UN857 AKNUB
Aircraft B738/M-SDE2E3FGHIRWXY/LB1

Departure

Time 2026-04-30 14:54
Airport Aeroparque Jorge Newbery (SABE)

Arrival

Time N/A
Airport Santos Dumont Airport (SBRJ)
Time Latitude Longitude Altitude Speed Heading
2026-04-30 14:37 -34.55859 -58.41338 26 ft 0 kts 266°
2026-04-30 14:46 -34.55858 -58.41329 32 ft 4 kts 266°
2026-04-30 14:47 -34.55855 -58.41300 28 ft 3 kts 258°
2026-04-30 14:47 -34.55849 -58.41272 28 ft 2 kts 258°
2026-04-30 14:47 -34.55849 -58.41258 31 ft 2 kts 290°
2026-04-30 14:47 -34.55852 -58.41249 31 ft 0 kts 303°
2026-04-30 14:50 -34.55851 -58.41252 31 ft 2 kts 303°
2026-04-30 14:50 -34.55828 -58.41294 31 ft 10 kts 304°
2026-04-30 14:51 -34.55733 -58.41553 26 ft 13 kts 246°
2026-04-30 14:51 -34.55785 -58.41616 29 ft 7 kts 257°
2026-04-30 14:51 -34.55717 -58.41774 29 ft 18 kts 301°
2026-04-30 14:52 -34.55640 -58.41923 28 ft 24 kts 304°
2026-04-30 14:52 -34.55406 -58.42312 29 ft 34 kts 306°
2026-04-30 14:52 -34.55373 -58.42491 26 ft 14 kts 234°
2026-04-30 14:53 -34.55430 -58.42463 27 ft 0 kts 123°
2026-04-30 14:53 -34.55464 -58.42399 27 ft 37 kts 123°
2026-04-30 14:54 -34.56316 -58.40855 64 ft 170 kts 123°
2026-04-30 14:54 -34.57642 -58.38418 1640 ft 180 kts 118°
2026-04-30 14:55 -34.57004 -58.35627 2655 ft 198 kts 40°
2026-04-30 14:55 -34.55958 -58.34393 2886 ft 221 kts 33°
2026-04-30 14:55 -34.53373 -58.31959 3642 ft 252 kts 53°
2026-04-30 14:56 -34.52816 -58.27594 4640 ft 281 kts 104°
2026-04-30 14:56 -34.52784 -58.22974 6255 ft 284 kts 67°
2026-04-30 14:57 -34.52027 -58.20728 6960 ft 290 kts 66°
2026-04-30 14:57 -34.50605 -58.16616 8257 ft 299 kts 66°
2026-04-30 14:58 -34.49008 -58.11914 9697 ft 308 kts 68°
2026-04-30 14:58 -34.48193 -58.09480 10348 ft 315 kts 68°
2026-04-30 14:58 -34.46437 -58.04194 10756 ft 360 kts 68°
2026-04-30 14:59 -34.44526 -57.98406 11803 ft 376 kts 68°
2026-04-30 15:00 -34.41555 -57.89398 13683 ft 392 kts 68°
2026-04-30 15:00 -34.39514 -57.83219 14774 ft 403 kts 68°
2026-04-30 15:01 -34.37400 -57.76832 15835 ft 414 kts 67°
2026-04-30 15:01 -34.36674 -57.74641 16198 ft 418 kts 67°
2026-04-30 15:01 -34.34493 -57.68072 17221 ft 428 kts 67°
2026-04-30 15:02 -34.33374 -57.64709 17720 ft 433 kts 66°
2026-04-30 15:02 -34.31858 -57.60152 18382 ft 440 kts 66°
2026-04-30 15:03 -34.28778 -57.50920 19682 ft 447 kts 66°
2026-04-30 15:03 -34.26431 -57.43905 20649 ft 453 kts 65°
2026-04-30 15:04 -34.24047 -57.36793 21569 ft 459 kts 65°
2026-04-30 15:04 -34.20407 -57.25967 22913 ft 468 kts 65°
2026-04-30 15:05 -34.16701 -57.14983 24084 ft 476 kts 64°
2026-04-30 15:06 -34.14180 -57.07532 24785 ft 482 kts 64°
2026-04-30 15:06 -34.11626 -57.00003 25452 ft 487 kts 64°
2026-04-30 15:07 -34.09040 -56.92396 26110 ft 492 kts 64°
2026-04-30 15:07 -34.06423 -56.84719 26747 ft 497 kts 64°
2026-04-30 15:08 -34.03775 -56.76968 27352 ft 502 kts 64°
2026-04-30 15:08 -33.99744 -56.65207 28217 ft 510 kts 64°
2026-04-30 15:09 -33.97037 -56.57329 28794 ft 514 kts 64°
2026-04-30 15:09 -33.94283 -56.49337 29350 ft 519 kts 64°
2026-04-30 15:10 -33.91501 -56.41278 29872 ft 523 kts 64°
2026-04-30 15:11 -33.84101 -56.26462 30822 ft 513 kts 41°
2026-04-30 15:11 -33.79335 -56.20105 31545 ft 510 kts 42°
2026-04-30 15:12 -33.72417 -56.10437 32496 ft 507 kts 43°
2026-04-30 15:13 -33.67842 -56.04008 33118 ft 504 kts 42°
2026-04-30 15:14 -33.58766 -55.91345 34248 ft 500 kts 42°
2026-04-30 15:14 -33.51983 -55.81923 34974 ft 496 kts 41°
2026-04-30 15:16 -33.40755 -55.66379 36059 ft 492 kts 41°
2026-04-30 15:17 -33.31817 -55.54052 36855 ft 488 kts 41°
2026-04-30 15:18 -33.20678 -55.38751 37106 ft 488 kts 41°
2026-04-30 15:19 -33.14027 -55.29639 37113 ft 484 kts 41°